Tracking 18852 objects as of 23-Nov-2017
HD Live streaming from Space Station
objects crossing your sky now

FENGYUN 1C DEB

Track FENGYUN 1C DEB now!
10-day predictions


NORAD ID: 30759
Int'l Code: 1999-025ATV
Perigee: 802.6 km
Apogee: 826.4 km
Inclination: 99.3 °
Period: 101.0 minutes
Semi major axis: 7185 km
RCS: 0.026 m2 (small)
Launch date: May 10, 1999
Source: People's Republic of China (PRC)
Launch site: Taiyaun Space Center, China (TSC)

Note: This is SATELLITE DEBRIS
aabbcc
Your satellite tracking list
Your tracking list is empty




NASA's NSSDC Master Catalog

Two Line Element Set (TLE):
1 30759U 99025ATV 17326.59287594  .00001170  00000-0  51657-3 0  9993
2 30759  99.2873 189.6949 0016551  10.5710  42.6910 14.25346136555745
Source of the keplerian elements: AFSPC